sat.trackr.live / text

‹ back to catalog

FOX-1CLIFF (AO-95)

NORAD 43770 · 2018-099N

PAYLOAD ACTIVE UNKNOWN

§ Identity

Operator
Country
US
Launch date
2018-12-03
Launch site
AFWTR
Launch vehicle
Mass (kg)
RCS (m²)

Purposes: comms

External: N2YO · Heavens-Above · Gunter

§ Orbital elements

Epoch: 2026-09-20T02:56:14.516736Z

Period
94.21 min
Inclination
97.4285°
Eccentricity
0.0008479
Mean motion
15.28501039 rev/d
Perigee alt
474.5 km
Apogee alt
486.1 km
Semi-major
6,858.4 km
B*
2.8592e-4
RAAN
323.0885°
Arg perigee
22.9515°
Mean anomaly
337.2102°
Rev number
42,771

§ Raw data

FOX-1CLIFF (AO-95)1 43770U 18099N   26263.12239024  .00007863  00000+0  28592-3 0  99922 43770  97.4285 323.0885 0008479  22.9515 337.2102 15.28501039427712

JSON: /api/v1/satellites/43770 · /tle

For live sub-satellite position, see the globe view (requires WebGL).

§ Visibility from observer

Set your observer location to see the next 7 days of passes ≥ 10°. The values pass through the URL so the page stays shareable.

No JS? Fill the form by hand. The geolocation button needs JavaScript.

§ Radio — SatNOGS DB

ModeDescriptionDownlinkUplink
AFSK AFSK9k6 digital data 145.920 MHz
DUV DUV TLM 145.920 MHz
FM L/V FM (inactive) 145.920 MHz 1.267 GHz
FM U/V FM (inactive) 145.920 MHz 435.300 MHz

4 transmitters · refreshed weekly from db.satnogs.org